This is the latest recevied weather packets stored in our database for station/object JH4GLG-13. If no packets are shown the sender has not sent any weather packets the latest 10 day(s).
| Time | Temp. | Humidity | Pressure | Rain* | Wind** | Luminosity | Snow |
|---|---|---|---|---|---|---|---|
| 1777431323 | 21.11° C | 54% | 1016.6 hPa | 0 mm | - | - | - |
| 1777430422 | 21.11° C | 55% | 1016.5 hPa | 0 mm | - | - | - |
| 1777429523 | 20.56° C | 55% | 1016.5 hPa | 0 mm | - | - | - |
| 1777428622 | 21.11° C | 56% | 1016.5 hPa | 0 mm | - | - | - |
| 1777427723 | 21.11° C | 56% | 1016.6 hPa | 0 mm | - | - | - |
| 1777426821 | 20.56° C | 58% | 1016.6 hPa | 0 mm | - | - | - |
| 1777425922 | 20° C | 59% | 1016.7 hPa | 0 mm | - | - | - |
| 1777425021 | 20° C | 59% | 1016.7 hPa | 0 mm | - | - | - |
| 1777424122 | 20° C | 58% | 1016.5 hPa | 0 mm | - | - | - |
| 1777423221 | 20° C | 59% | 1016.4 hPa | 0 mm | - | - | - |
| 1777422326 | 19.44° C | 58% | 1016.3 hPa | 0 mm | - | - | - |
| 1777422322 | - | - | 1016.4 hPa | 0 mm | - | - | - |
| 1777421420 | 19.44° C | 59% | 1016.4 hPa | 0 mm | - | - | - |
| 1777420521 | 19.44° C | 60% | 1016.5 hPa | 0 mm | - | - | - |
| 1777419621 | 18.89° C | 61% | 1016.3 hPa | 0 mm | - | - | - |
| 1777418721 | 18.89° C | 62% | 1016.1 hPa | 0 mm | - | - | - |
| 1777417820 | 18.89° C | 62% | 1016.2 hPa | 0 mm | - | - | - |
| 1777416921 | 18.33° C | 66% | 1015.9 hPa | 0 mm | - | - | - |
| 1777416019 | 18.33° C | 67% | 1015.8 hPa | 0 mm | - | - | - |
| 1777415121 | 17.78° C | 72% | 1015.6 hPa | 0 mm | - | - | - |
| 1777414220 | 17.78° C | 72% | 1015.3 hPa | 0 mm | - | - | - |
| 1777413321 | 17.78° C | 74% | 1014.9 hPa | 0 mm | - | - | - |
| 1777412419 | 17.78° C | 75% | 1014.9 hPa | 0 mm | - | - | - |
| 1777411520 | 17.78° C | 76% | 1014.7 hPa | 0 mm | - | - | - |
| 1777410619 | 17.22° C | 77% | 1014.4 hPa | 0 mm | - | - | - |
* Rain latest hour (hover to see other rain measurements)
** Current wind speed in m/s (hover to see current wind gust speed)